Volver al catálogo

SL-14 DEB

ActivoPO
NORAD 45266·DEBRIS·🇷🇺 Russia

Lanzado Aug 15, 1991 desde Plesetsk Cosmodrome

Loading…

Próximos Pases (próximas 24 horas)

TLE

ActualizadoSource: Space-Track

Época: Sep 14, 2026, 11:06 UTC

1 45266U 91056C   26257.46314202  .00000036  00000-0  59483-4 0  9990
2 45266  82.5484  72.5745 0004671 173.9722 186.1458 13.18021993316881

Sigue SL-14 DEB en tiempo real con AllMySat

Download on the App Store